FW4701 Weather Reports


Display with metric or nautical units.
time (UTC)temp
F
wind
direction
speed
MPH
gust
MPH
rain 1hr
in
rain 24hr
in
rain mn
in
humidity
%
barometer
mb
20260504234528 82 130 4.0 9.0 0.00 0.00 0.00 43 1007.3
20260504234519 62 111 0.0 2.0 0.35 0.35 0.35 85 997.9
20260504234007 62 111 0.0 5.0 0.35 0.35 0.35 82 998.2
20260504233513 63 90 0.0 6.0 0.35 0.35 0.35 80 998.3
20260504233024 63 186 2.0 14.0 0.35 0.35 0.35 76 998.8
20260504233019 82 176 2.0 7.0 0.00 0.00 0.00 43 1007.4
20260504232505 65 209 3.0 22.0 0.31 0.31 0.31 69 999.4
20260504232003 69 263 7.0 22.0 0.10 0.10 0.10 61 999.6
20260504231516 84 158 2.0 7.0 0.00 0.00 0.00 40 1007.6
20260504231506 72 267 5.0 11.0 0.00 0.00 0.00 53 999.0
20260504231003 73 67 3.0 10.0 0.00 0.00 0.00 51 998.0
20260504230503 74 56 4.0 10.0 0.00 0.00 0.00 48 998.2
20260504230015 75 255 2.0 11.0 0.00 0.00 0.00 46 997.9
20260504230011 84 200 0.0 8.0 0.00 0.00 0.00 41 1007.6
20260504225503 75 227 3.0 16.0 0.00 0.00 0.00 46 997.9
20260504225005 76 179 5.0 17.0 0.00 0.00 0.00 43 997.9
20260504224515 77 262 8.0 21.0 0.00 0.00 0.00 41 998.0
20260504224512 83 169 5.0 10.0 0.00 0.00 0.00 42 1007.7
20260504224006 78 158 7.0 22.0 0.00 0.00 0.00 40 998.0
20260504223507 78 186 9.0 22.0 0.00 0.00 0.00 39 998.1
20260504223023 79 202 10.0 20.0 0.00 0.00 0.00 39 998.0
20260504223002 83 151 5.0 9.0 0.00 0.00 0.00 41 1007.9
20260504222508 79 168 6.0 20.0 0.00 0.00 0.00 37 997.9
20260504222008 79 255 7.0 19.0 0.00 0.00 0.00 36 997.9
20260504221558 82 148 0.0 9.0 0.00 0.00 0.00 42 1008.1
20260504221523 80 192 8.0 19.0 0.00 0.00 0.00 35 998.0
20260504221005 81 247 6.0 19.0 0.00 0.00 0.00 34 997.9
20260504220503 82 238 7.0 14.0 0.00 0.00 0.00 34 997.8
20260504220055 83 261 0.0 7.0 0.00 0.00 0.00 43 1008.2
20260504220013 82 252 7.0 15.0 0.00 0.00 0.00 34 997.8
20260504215504 82 215 7.0 15.0 0.00 0.00 0.00 33 997.9
20260504215004 82 190 4.0 19.0 0.00 0.00 0.00 34 997.9
20260504214551 83 186 2.0 8.0 0.00 0.00 0.00 41 1008.5
20260504214518 81 238 10.0 19.0 0.00 0.00 0.00 33 998.1
20260504214003 81 179 7.0 16.0 0.00 0.00 0.00 34 998.1
20260504213503 81 163 5.0 12.0 0.00 0.00 0.00 34 998.0
20260504213049 83 162 1.0 10.0 0.00 0.00 0.00 40 1008.4
20260504213020 81 148 5.0 15.0 0.00 0.00 0.00 34 998.2
20260504212507 81 189 8.0 15.0 0.00 0.00 0.00 34 998.2
20260504212008 81 196 6.0 19.0 0.00 0.00 0.00 35 998.4
20260504211543 83 189 4.0 9.0 0.00 0.00 0.00 41 1008.7
20260504211524 80 228 7.0 19.0 0.00 0.00 0.00 35 998.4
20260504211009 80 212 8.0 19.0 0.00 0.00 0.00 35 998.4
20260504210508 79 182 7.0 17.0 0.00 0.00 0.00 35 998.5
20260504210037 83 139 1.0 10.0 0.00 0.00 0.00 41 1009.1
20260504210006 79 224 6.0 17.0 0.00 0.00 0.00 34 998.6
20260504205504 80 259 5.0 15.0 0.00 0.00 0.00 35 998.6
20260504205004 80 207 6.0 15.0 0.00 0.00 0.00 34 998.6
20260504204532 82 169 2.0 9.0 0.00 0.00 0.00 42 1009.1
20260504204509 80 254 5.0 14.0 0.00 0.00 0.00 35 998.6
20260504204005 81 214 5.0 16.0 0.00 0.00 0.00 35 998.6
20260504203503 80 211 8.0 16.0 0.00 0.00 0.00 36 998.6
20260504203029 82 204 4.0 9.0 0.00 0.00 0.00 42 1009.6
20260504203017 80 181 5.0 16.0 0.00 0.00 0.00 35 998.5
20260504202513 80 224 5.0 12.0 0.00 0.00 0.00 36 998.7
20260504202007 80 246 6.0 13.0 0.00 0.00 0.00 35 998.9
20260504201526 82 230 2.0 10.0 0.00 0.00 0.00 43 1009.9
20260504201520 80 269 7.0 14.0 0.00 0.00 0.00 36 998.9
20260504201010 80 182 6.0 15.0 0.00 0.00 0.00 36 998.9
20260504200510 80 253 6.0 15.0 0.00 0.00 0.00 34 999.0
20260504200026 79 215 8.0 16.0 0.00 0.00 0.00 35 999.2
20260504200023 82 161 4.0 10.0 0.00 0.00 0.00 42 1010.3
20260504195506 79 225 7.0 16.0 0.00 0.00 0.00 37 999.3
20260504195004 78 205 8.0 15.0 0.00 0.00 0.00 36 999.3
20260504194524 82 145 3.0 11.0 0.00 0.00 0.00 42 1010.4
20260504194509 78 232 5.0 19.0 0.00 0.00 0.00 36 999.4
20260504194004 78 240 7.0 19.0 0.00 0.00 0.00 35 999.5
20260504193505 79 213 6.0 19.0 0.00 0.00 0.00 34 999.6
20260504193017 82 168 4.0 12.0 0.00 0.00 0.00 42 1010.6
20260504192507 79 257 5.0 17.0 0.00 0.00 0.00 34 999.6
20260504192006 79 246 7.0 17.0 0.00 0.00 0.00 33 999.8
20260504191520 79 193 6.0 15.0 0.00 0.00 0.00 33 999.8
20260504191518 82 191 4.0 10.0 0.00 0.00 0.00 40 1010.7
20260504191007 79 194 9.0 15.0 0.00 0.00 0.00 32 999.9
20260504190511 78 218 8.0 14.0 0.00 0.00 0.00 32 999.9
20260504190023 78 215 7.0 20.0 0.00 0.00 0.00 31 1000.0
20260504190009 82 204 1.0 6.0 0.00 0.00 0.00 41 1010.9
20260504185508 78 297 8.0 20.0 0.00 0.00 0.00 30 1000.0
20260504185009 78 224 5.0 16.0 0.00 0.00 0.00 32 999.8
20260504184526 78 197 6.0 15.0 0.00 0.00 0.00 33 999.7
20260504184506 81 198 5.0 13.0 0.00 0.00 0.00 41 1011.1
20260504184011 78 232 7.0 14.0 0.00 0.00 0.00 33 999.8
20260504183503 78 233 8.0 14.0 0.00 0.00 0.00 34 999.9
20260504183013 78 180 6.0 13.0 0.00 0.00 0.00 34 999.9
20260504183002 81 150 0.0 6.0 0.00 0.00 0.00 42 1011.1
20260504182504 77 184 5.0 12.0 0.00 0.00 0.00 34 1000.0
20260504182003 77 221 5.0 16.0 0.00 0.00 0.00 34 1000.0
20260504181601 81 193 0.0 9.0 0.00 0.00 0.00 43 1011.6
20260504181518 77 257 7.0 21.0 0.00 0.00 0.00 33 1000.2
20260504181005 77 225 11.0 21.0 0.00 0.00 0.00 34 1000.3
20260504180513 76 238 6.0 17.0 0.00 0.00 0.00 35 1000.2
20260504180056 80 214 1.0 8.0 0.00 0.00 0.00 41 1011.9
20260504180021 76 237 8.0 20.0 0.00 0.00 0.00 34 1000.4
20260504175512 76 157 5.0 20.0 0.00 0.00 0.00 35 1000.4
20260504175008 76 199 6.0 16.0 0.00 0.00 0.00 36 1000.4
20260504174552 80 197 1.0 9.0 0.00 0.00 0.00 43 1012.0
20260504174526 76 261 9.0 16.0 0.00 0.00 0.00 35 1000.4
20260504174011 75 230 5.0 11.0 0.00 0.00 0.00 37 1000.6
20260504173507 75 165 4.0 14.0 0.00 0.00 0.00 36 1000.7
20260504173049 80 185 2.0 7.0 0.00 0.00 0.00 42 1012.2
20260504173025 75 224 7.0 18.0 0.00 0.00 0.00 35 1000.7
20260504172502 75 226 7.0 18.0 0.00 0.00 0.00 36 1000.8
20260504172004 75 242 10.0 17.0 0.00 0.00 0.00 37 1000.8
20260504171549 79 111 4.0 13.0 0.00 0.00 0.00 41 1012.5
20260504171515 75 198 5.0 15.0 0.00 0.00 0.00 37 1000.9
20260504171007 75 215 5.0 12.0 0.00 0.00 0.00 40 1001.0
20260504170506 75 177 5.0 12.0 0.00 0.00 0.00 41 1001.1
20260504151010 68 163 5.0 12.0 0.00 0.00 0.00 46 1002.7
20260504150512 68 178 3.0 15.0 0.00 0.00 0.00 48 1002.7
20260504141011 64 175 1.0 9.0 0.00 0.00 0.00 54 1003.3
20260504140511 63 257 3.0 9.0 0.00 0.00 0.00 55 1003.4
20260504130504 59 240 2.0 7.0 0.00 0.00 0.00 64 1003.9
20260504110503 50 192 1.0 6.0 0.00 0.00 0.00 80 1004.2
20260504100511 50 196 1.0 3.0 0.00 0.00 0.00 80 1004.3
20260504082003 50 176 0.0 2.0 0.00 0.00 0.00 81 1004.2
20260504081522 59 155 0.0 2.0 0.00 0.00 0.00 56 1014.7
20260504081517 50 180 0.0 2.0 0.00 0.00 0.00 81 1004.2
20260504081004 50 134 0.0 1.0 0.00 0.00 0.00 80 1004.2
20260504080504 51 206 0.0 0.0 0.00 0.00 0.00 80 1004.1
20260504050508 58 246 3.0 7.0 0.00 0.00 0.00 65 1005.8
20260504050016 59 210 2.0 7.0 0.00 0.00 0.00 64 1005.8
20260504045504 59 238 2.0 7.0 0.00 0.00 0.00 64 1005.7
20260504045004 59 215 3.0 7.0 0.00 0.00 0.00 64 1005.7
20260504044540 61 123 0.0 1.0 0.00 0.00 0.00 51 1016.8
20260504044518 59 233 1.0 7.0 0.00 0.00 0.00 64 1005.8
20260504044005 59 228 3.0 10.0 0.00 0.00 0.00 64 1005.7
20260504043508 59 236 4.0 10.0 0.00 0.00 0.00 63 1005.8
20260504043047 61 123 0.0 1.0 0.00 0.00 0.00 51 1016.8
20260504043024 59 291 3.0 7.0 0.00 0.00 0.00 63 1005.7
20260504042506 59 221 2.0 7.0 0.00 0.00 0.00 63 1005.6
20260504042002 59 160 2.0 7.0 0.00 0.00 0.00 62 1005.7
20260504041539 62 123 0.0 0.0 0.00 0.00 0.00 51 1016.9
20260504041510 59 200 1.0 6.0 0.00 0.00 0.00 62 1005.6
20260504041003 59 215 2.0 6.0 0.00 0.00 0.00 61 1005.6
20260504040502 59 175 2.0 6.0 0.00 0.00 0.00 61 1005.7
20260504040036 62 123 1.0 3.0 0.00 0.00 0.00 51 1017.0
20260504040010 60 205 2.0 6.0 0.00 0.00 0.00 61 1005.7
20260504035507 60 186 2.0 7.0 0.00 0.00 0.00 60 1005.7
20260504035005 60 196 3.0 7.0 0.00 0.00 0.00 60 1005.7
20260504034534 63 119 1.0 3.0 0.00 0.00 0.00 50 1017.1
20260504034517 60 182 3.0 7.0 0.00 0.00 0.00 60 1005.8
20260504034007 60 181 2.0 6.0 0.00 0.00 0.00 60 1005.9
20260504033507 60 195 3.0 6.0 0.00 0.00 0.00 59 1005.9
20260504033037 63 121 0.0 2.0 0.00 0.00 0.00 50 1017.1
20260504033020 60 214 2.0 5.0 0.00 0.00 0.00 59 1006.0
20260504032511 60 188 1.0 5.0 0.00 0.00 0.00 59 1006.1
20260504032009 61 179 2.0 5.0 0.00 0.00 0.00 59 1006.1
20260504031529 64 119 0.0 2.0 0.00 0.00 0.00 48 1016.8
20260504031526 61 175 1.0 5.0 0.00 0.00 0.00 58 1006.2
20260504031009 61 205 1.0 5.0 0.00 0.00 0.00 58 1006.2
20260504030503 61 157 0.0 4.0 0.00 0.00 0.00 58 1006.2
20260504030027 64 121 0.0 3.0 0.00 0.00 0.00 48 1016.7
20260504030010 61 217 1.0 4.0 0.00 0.00 0.00 58 1006.2
20260504025503 61 190 2.0 4.0 0.00 0.00 0.00 57 1006.2
20260504025004 61 200 2.0 5.0 0.00 0.00 0.00 57 1006.3
20260504024524 65 124 0.0 1.0 0.00 0.00 0.00 47 1016.9
20260504024511 62 205 0.0 5.0 0.00 0.00 0.00 56 1006.3
20260504024003 62 186 2.0 7.0 0.00 0.00 0.00 56 1006.2
20260504023504 62 175 2.0 7.0 0.00 0.00 0.00 56 1006.1
20260504023027 66 124 0.0 1.0 0.00 0.00 0.00 47 1016.8
20260504023019 62 184 1.0 4.0 0.00 0.00 0.00 56 1006.1
20260504022509 62 168 1.0 5.0 0.00 0.00 0.00 55 1006.1
20260504022007 63 207 2.0 5.0 0.00 0.00 0.00 54 1006.1
20260504021622 67 139 0.0 0.0 0.00 0.00 0.00 45 1016.9
20260504021520 63 166 1.0 6.0 0.00 0.00 0.00 54 1006.1
20260504021006 63 194 1.0 6.0 0.00 0.00 0.00 54 1006.1
20260504020508 63 172 2.0 5.0 0.00 0.00 0.00 53 1006.0
20260504020024 63 188 1.0 5.0 0.00 0.00 0.00 53 1005.9
20260504020019 68 144 0.0 1.0 0.00 0.00 0.00 43 1016.6
20260504015506 64 226 2.0 8.0 0.00 0.00 0.00 53 1005.9
20260504015005 64 215 3.0 8.0 0.00 0.00 0.00 52 1005.8
20260504014616 69 148 0.0 1.0 0.00 0.00 0.00 40 1016.4
20260504014510 64 219 3.0 7.0 0.00 0.00 0.00 52 1005.7
20260504014004 64 74 3.0 6.0 0.00 0.00 0.00 51 1005.7
20260504013506 65 178 2.0 8.0 0.00 0.00 0.00 51 1005.6
20260504013021 65 170 2.0 8.0 0.00 0.00 0.00 50 1005.6
20260504013018 70 148 0.0 2.0 0.00 0.00 0.00 38 1016.3
20260504012505 65 220 3.0 9.0 0.00 0.00 0.00 50 1005.6
20260504012007 66 172 4.0 9.0 0.00 0.00 0.00 49 1005.5
20260504011519 66 228 3.0 8.0 0.00 0.00 0.00 48 1005.5
20260504011006 66 183 3.0 8.0 0.00 0.00 0.00 48 1005.5
20260504010512 67 196 2.0 7.0 0.00 0.00 0.00 48 1005.4
20260504010022 67 196 1.0 8.0 0.00 0.00 0.00 47 1005.4
20260504010010 72 162 0.0 1.0 0.00 0.00 0.00 34 1016.4
20260504005508 68 214 3.0 8.0 0.00 0.00 0.00 46 1005.4
20260504005007 68 200 3.0 8.0 0.00 0.00 0.00 46 1005.5
20260504004611 73 129 0.0 3.0 0.00 0.00 0.00 31 1016.3
20260504004530 68 193 2.0 7.0 0.00 0.00 0.00 45 1005.5
20260504004003 69 215 3.0 11.0 0.00 0.00 0.00 44 1005.5
20260504003503 69 194 2.0 11.0 0.00 0.00 0.00 44 1005.5
20260504003013 69 212 3.0 8.0 0.00 0.00 0.00 43 1005.5
20260504003006 75 164 1.0 5.0 0.00 0.00 0.00 28 1016.3
20260504002505 69 159 3.0 9.0 0.00 0.00 0.00 43 1005.5
20260504002005 69 156 1.0 13.0 0.00 0.00 0.00 42 1005.5
20260504001518 70 253 6.0 13.0 0.00 0.00 0.00 42 1005.6
20260504001502 77 183 1.0 8.0 0.00 0.00 0.00 27 1016.5
20260504001004 70 200 5.0 10.0 0.00 0.00 0.00 42 1005.5
20260504000506 70 276 4.0 10.0 0.00 0.00 0.00 41 1005.6
20260504000130 78 122 3.0 8.0 0.00 0.00 0.00 27 1016.5
20260504000049 70 234 3.0 16.0 0.00 0.00 0.00 42 1005.5
20260503235509 70 223 5.0 16.0 0.00 0.00 0.00 41 1005.5
20260503235008 70 198 7.0 15.0 0.00 0.00 0.00 41 1005.5